KI5NYZ-13 Weather Reports


time (UTC)temp
C
wind
direction
speed
KPH
gust
KPH
rain 1hr
cm
rain 24hr
cm
rain mn
cm
humidity
%
barometer
mb
20260507093107 9 63 1.6 3.2 0.00 0.94 0.00 68 1020.5
20260507090106 10 75 3.2 6.4 0.00 0.94 0.00 66 1020.2
20260507083105 10 71 3.2 4.8 0.00 0.94 0.00 65 1019.7
20260507080104 11 68 3.2 6.4 0.00 0.94 0.00 62 1019.5
20260507073103 11 71 3.2 6.4 0.00 0.94 0.00 61 1018.9
20260507063101 12 70 4.8 9.7 0.00 0.94 0.00 56 1018.3
20260507060100 12 100 0.0 4.8 0.00 0.94 0.00 57 1017.0
20260507053059 14 122 3.2 6.4 0.00 0.94 0.00 54 1015.9
20260507050058 15 127 1.6 8.0 0.05 0.94 0.94 50 1014.9
20260507041520 16 118 3.2 4.8 0.48 0.89 0.89 46 1013.8
20260507034519 17 58 6.4 6.4 0.56 0.71 0.71 44 1012.8
20260507031518 18 113 11.3 11.3 0.20 0.36 0.36 41 1012.0
20260507024517 18 126 3.2 3.2 0.00 0.15 0.15 40 1011.2
20260507021517 19 198 0.0 0.0 0.00 0.15 0.15 39 1010.3
20260507014515 20 142 0.0 0.0 0.00 0.15 0.15 37 1009.4
20260507011514 22 180 4.8 4.8 0.00 0.15 0.15 32 1008.3
20260507004513 23 78 0.0 1.6 0.00 0.15 0.15 30 1007.7
20260507001513 24 182 6.4 6.4 0.00 0.15 0.15 28 1007.3
20260506234511 24 106 1.6 1.6 0.00 0.15 0.15 27 1007.3
20260506231510 24 94 1.6 3.2 0.00 0.18 0.15 27 1007.2
20260506224509 23 90 1.6 1.6 0.00 0.36 0.15 28 1007.4
20260506221508 23 78 1.6 1.6 0.00 0.38 0.15 29 1007.9
20260506214507 23 106 1.6 1.6 0.00 0.38 0.15 28 1008.2
20260506211506 22 93 3.2 3.2 0.00 0.41 0.15 30 1008.9
20260506204506 22 81 1.6 1.6 0.00 0.41 0.15 32 1009.6
20260506201504 21 168 3.2 3.2 0.00 0.41 0.15 35 1010.3
20260506194503 20 100 3.2 3.2 0.00 0.41 0.15 38 1011.0
20260506191502 18 73 3.2 3.2 0.00 0.41 0.15 41 1011.7
20260506184501 17 112 3.2 3.2 0.00 0.41 0.15 46 1012.5
20260506181501 16 54 1.6 3.2 0.00 0.41 0.15 49 1013.4
20260506174459 14 103 4.8 4.8 0.00 0.41 0.15 54 1014.4
20260506171458 13 90 4.8 4.8 0.00 0.41 0.15 56 1014.9
20260506164457 13 115 3.2 11.3 0.05 0.38 0.13 59 1015.3
20260506161456 12 107 6.4 11.3 0.10 0.38 0.13 62 1015.5
20260506154455 11 100 6.4 12.9 0.03 0.30 0.05 65 1015.9
20260506151454 10 89 6.4 14.5 0.00 0.28 0.03 66 1015.8
20260506144453 9 72 4.8 9.7 0.00 0.25 0.00 69 1016.3
20260506141452 8 83 6.4 14.5 0.00 0.25 0.00 72 1016.4
20260506134451 7 62 8.0 14.5 0.00 0.25 0.00 76 1016.2
20260506131450 7 53 6.4 12.9 0.00 0.25 0.00 78 1015.7
20260506124449 7 66 4.8 8.0 0.00 0.25 0.00 80 1015.6
20260506121448 7 66 4.8 8.0 0.00 0.25 0.00 79 1015.7
20260506114447 7 62 6.4 11.3 0.00 0.25 0.00 76 1015.0
20260506111446 8 78 4.8 9.7 0.00 0.25 0.00 74 1013.8
20260506104445 10 90 6.4 11.3 0.00 0.23 0.00 73 1012.9
20260506101444 11 106 6.4 11.3 0.00 0.23 0.00 71 1012.2